FENGYUN 1C DEB

Satellite information

Favourite Embed

Satellite Type and Status

DEBRISIN ORBIT

Key statistics

Satellite FENGYUN 1C DEB at a glance.

Uptime

9665

Days in orbit

Revolutions

≈ 14.2

Per day

Orbit

SSO

Sun Synchronous Orbit

Inclination

99.1

Latest

Satellite identification and parameters

Extended collection of information and parameters for FENGYUN 1C DEB.

Object identification

Identified? True

Debris? True

Object name: FENGYUN 1C DEB

International designator: 1999-025EYQ

Object number (NORAD): 43359

Object ID (CCSDS): 43359

Country: PEOPLES REPUBLIC OF CHINA (PRC)

Current information (Y/N): Y

RCS size: SMALL

Orbital parameters

Period: 101.234 minutes

Inclination: 99.0561 deg

SMA: 7195.233 km

Apoapsis: 873.683 km

Periapsis: 760.513 km

RAAN: 14.7634 deg

Eccentricy: 0.00786422

Argument of periapsis: 159.7584 deg

Mean anomaly: 200.6741 deg

Mean motion: 14.22444882 rev/day

Mean motion (dot): 0.00007057 rev/day2

B* drag term: 0.0030856652 1/REarth

Two-line elements (TLE)

Creation date: Oct. 23, 2025, 6:40 p.m.

Reference frame: TEME

Reference center: EARTH

Epoch: Oct. 23, 2025, 4:13 a.m. UTC

TLE line 0: 0 FENGYUN 1C DEB

TLE line 1: 1 43359U 99025EYQ 25296.17585668 .00007057 00000-0 30857-2 0 9993

TLE line 2: 2 43359 99.0561 14.7634 0078642 159.7584 200.6741 14.22444882470300

Live tracking on map

Real-time ground track for satellite FENGYUN 1C DEB.

In-orbit conjunctions

A list of the most updated potential collisions computed for object FENGYUN 1C DEB.

Target Orbit TCA Probability of collision Miss distance Type
SL-8 R/B LEO 2024-11-13 00:09:11 0.0001028504 544.0 (m) ROCKET BODY
ARIANE 1 DEB MEO 2024-11-09 19:45:51 0.0004539827 382.0 (m) DEBRIS

Associated space launch

Chinese polar orbiting meteorological satellite

FENGYUN 1C DEB was lifted into orbit during the mission ‘Long March 4B | Feng Yun 1C’, on board a Long March 4B space rocket.

The launch took place on May 10, 1999, 1:33 a.m. from Launch Complex 7.

For more information about the launch, click the button.

Launch to space Long March 4B | Feng Yun 1C
Long March 4B | Feng Yun 1C

Agency: N/A

Status: Launch Successful

Launch date: May 10, 1999, 1:33 a.m. UTC

Rocket: Long March 4B

Launch pad: Launch Complex 7

Location: Taiyuan Satellite Launch Center, People's Republic of China

...

Latest news about this satellite

There are no fresh news available about this satellite. Check back as we update our databases every day.


Newsletter sign-up

Weekly statistics, charts and insights to help you stay on top of the space industry.